Weather in Selikhovo

Russia / Oryol Oblast     53°13′13″N   35°45′14″E
temp.,
°C
wind,
m/s
gust,
m/s
humid.,
%
clouds,
%
prec.,
mm/h
press.,
hPa
HPBL,
m
10 may, mon
mon1000:00+3nw49825 0.0 1023166
03:00+2nnw411820 0.0 1024175
06:00+3nnw39800 0.0 1025173
09:00+9n58610 0.0 1026575
12:00+12nne79471 0.0 10261664
15:00+13nne8104714 0.0 10251603
18:00+12nne69588 0.0 10241007
21:00+7nne41271100 0.0 1026273
11 may, tue
tue1100:00+8nne61466100 0.0 1025487
03:00+8nne61474100 0.0 1024398
06:00+8nne6148198 0.0 1024396
09:00+12ne8137662 0.0 1023538
12:00+17ne8117031 0.0 1022931
15:00+19ene8126897 0.1 10211537
18:00+13ese5119084 1.4 1023658
21:00+10ese39880 1.4 1024247
12 may, wed
wed1200:00+7ese310921 0.0 1025233
03:00+5ese33945 0.0 102651
06:00+6ene359229 0.0 1026125
09:00+11ne4675100 0.0 1024517
12:00+12ene6670100 0.3 10221027
15:00+10ene337584 1.4 1020561
18:00+11e477668 0.0 1019698
21:00+9ene4109361 1.8 1018360
13 may, thu
thu1300:00+9ese41095100 0.7 1017427
03:00+9ese61297100 3.3 1017611
06:00+9se412966 0.5 1017493
09:00+12s688052 0.5 1017880
12:00+16sse696499 0.1 10171656
15:00+17sse586088 0.2 10161907
18:00+17se367078 0.0 1016424
21:00+13se3784100 0.1 1016109
14 may, fri
fri1400:00+12ese3885100 0.0 1016142
03:00+11ese4119099 0.0 1015197
06:00+12ese51487100 0.0 1014339
09:00+16ese51087100 0.2 1013364
12:00+18se61284100 0.8 1012704
15:00+20sse9137395 2.9 10111338
18:00+19sse6108044 1.4 1010678
21:00+14ese389797 2.7 1010164